User: anonymous   Login
Location: Tyler Bend Campground
(35.9875°N, 92.7606°W)
Time: 06:12:15
(UTC-05:00)
Language:

Iridium 39 - Orbit

View from above orbital plane
View from above orbital plane
View from above satellite
View from above satellite

Ground track
Ground track

The orbit data is extracted from the following two-line orbital elements,

1 25042U 97069D   14297.42942223  .00000657  00000-0  22734-3 0   221
2 25042 086.3977 066.2530 0002308 108.1013 252.0435 14.34221524887747
Epoch (UTC): 24 October 2014 10:18:22
Eccentricity: 0.0002308
inclination: 86.3977°
perigee height: 776 km
apogee height: 779 km
right ascension of ascending node: 66.2530°
argument of perigee: 108.1013°
revolutions per day: 14.34221524
mean anomaly at epoch: 252.0435°
orbit number at epoch: 88774

The dashed part of the orbit path shows where the satellite is in the earth's shadow,  

DLR